Location: Asheville, NC
(35.6000°N, 82.5500°W)
Time: 20:43:09
(UTC-04:00)

LilacSat-2 - Pass Details

Date: 06 January 2018
Orbit: 514 x 537 km, 97.5° (Epoch: 22 June)

Event Time Altitude Azimuth Distance (km) Brightness Sun altitude
Rises 17:56:54 0° 173° (S) 2,664 ? -5.4°
Reaches altitude 10° 17:59:01 10° 175° (S) 1,780 ? -5.8°
Maximum altitude 18:02:50 68° 259° (W) 580 ? -6.5°
Drops below altitude 10° 18:06:42 10° 343° (NNW) 1,798 ? -7.2°
Sets 18:08:51 0° 346° (NNW) 2,693 ? -7.6°
